This demonstration page uses our WeatherBlox Daily Observations layout. Learn more.

Left ArrowRight Arrow

39.92423, -83.80882

Hourly Observations for March 26, 2020

Temp ( °F °C ) Dew Point ( °F °C ) Humidity (%) Winds ( mph kmh ) Pressure ( in mb ) Visibility ( mi km ) Precip ( " mm )
12:56 am 00:56 Clear 50 10 40 4.4 68 68 S 6 9 29.96 1014 10 16.0934 0 0
1:56 am 01:56 Clear 50 10 42 5.6 74 74 SSW 7 11 29.94 1014 10 16.0934 0 0
2:56 am 02:56 Clear 49 9.4 42 5.6 77 77 S 7 11 29.93 1014 10 16.0934 0 0
3:56 am 03:56 Clear 47 8.3 42 5.6 83 83 S 5 7 29.92 1013 10 16.0934 0 0
4:56 am 04:56 Clear 47 8.3 42 5.6 83 83 S 8 13 29.92 1013 10 16.0934 0 0
5:56 am 05:56 Clear 47 8.3 42 5.6 83 83 S 7 11 29.92 1013 10 16.0934 0 0
6:56 am 06:56 Clear 47 8.3 42 5.6 83 83 S 7 11 29.93 1013 10 16.0934 0 0
7:56 am 07:56 Sunny 47 8.3 42 5.6 83 83 S 7 11 29.93 1014 10 16.0934 0 0
8:56 am 08:56 Sunny 48 8.9 43 6.1 83 83 S 9 15 29.92 1013 10 16.0934 0 0
9:56 am 09:56 Sunny 53 11.7 45 7.2 74 74 SW 10 17 29.93 1013 10 16.0934 0 0
10:56 am 10:56 Sunny 56 13.3 47 8.3 72 72 SW 14 22 29.92 1013 10 16.0934 0 0
11:56 am 11:56 Sunny 60 15.6 51 10.6 72 72 WSW 14 22 29.91 1013 10 16.0934 0 0
12:56 pm 12:56 Sunny 62 16.7 52 11.1 70 70 WSW 15 24 29.88 1012 10 16.0934 0.49 12.446
1:56 pm 13:56 Sunny 65 18.3 53 11.7 66 66 WSW 13 20 29.85 1011 10 16.0934 0.11 2.794
2:56 pm 14:56 Sunny 65 18.3 50 10 59 59 SSW 14 22 29.81 1010 10 16.0934 0.19 4.826
3:56 pm 15:56 Mostly Cloudy 65 18.3 50 10 59 59 SSE 12 19 29.73 1007 10 16.0934 2.74 69.596
4:56 pm 16:56 Partly Cloudy 67 19.4 51 10.6 57 57 VRB 7 11 29.76 1008 10 16.0934 0.45 11.43
5:56 pm 17:56 Cloudy 66 18.9 51 10.6 59 59 S 7 11 29.74 1007 10 16.0934 0 0
6:56 pm 18:56 Cloudy 64 17.8 52 11.1 65 65 Calm 29.72 1007 10 16.0934 0.02 0.508
7:56 pm 19:56 Cloudy with Light Rain 59 15 56 13.3 90 90 NNW 9 15 29.77 1008 10 16.0934 0.05 1.27
8:56 pm 20:56 Cloudy 57 13.9 56 13.3 96 96 NE 7 11 29.75 1008 10 16.0934 0.02 0.508
9:56 pm 21:56 Cloudy 56 13.3 56 13.3 100 100 NE 14 22 29.75 1007 10 16.0934 0 0
10:56 pm 22:56 Cloudy 55 12.8 55 12.8 100 100 NNE 12 19 29.77 1008 10 16.0934 0 0
11:04 pm 23:04 Cloudy 55 13 55 13 100 100 NE 13 20 29.76 1008 10 16.0934 0 0
11:20 pm 23:20 Cloudy 55 13 55 13 100 100 NE 14 22 29.76 1008 10 16.0934 0 0
11:56 pm 23:56 Cloudy 55 12.8 55 12.8 100 100 NE 14 22 29.78 1008 9 14.48406 0 0

Powered by AerisWeather